Location: Home
(42.5358°N, 72.7383°W)
Time: 06:47:31
(UTC-05:00)

Courier 1B Rocket - Pass Details

Date: 02 December 2021
Orbit: 920 x 1202 km, 28.2° (Epoch: 25 January)

Event Time Altitude Azimuth Distance (km) Brightness Sun altitude
Rises 22:43:43 0° 222° (SW) 3,618 - -66.4°
Reaches altitude 10° 22:47:25 10° 202° (SSW) 2,637 - -66.8°
Maximum altitude 22:51:08 16° 166° (SSE) 2,196 - -67.1°
Drops below altitude 10° 22:54:48 10° 129° (SE) 2,604 - -67.4°
Sets 22:58:25 0° 109° (ESE) 3,549 - -67.8°
